When you browse on this site, cookies collect data to enhance your experience and personalize the content and advertising you see.
Visit our Privacy Policy to learn more. By continuing to use the site, you agree to this use of cookies and data.
  • Em Portugal
  • Lista de países
  • Para 7 dias
  • Temperatura da água
  • Mapas de satélite
  • Mapa do tempo
  • Widgets de tempo
  • user-avatar
    Iniciar Sessão

    Previsão horária em Polotsk

    Hoje, 25 Maio, Sábado

    Tempo Temperatura Precipitação Vento Pressão Humidade
    00:00 +14°C° 0.1 mm 0 m/s 742 mmHg 95%
    01:00 +13°C° 0.1 mm 0 m/s 742 mmHg 96%
    02:00 +14°C° 0 mm 1 m/s 742 mmHg 96%
    03:00 +14°C° 0.1 mm 1 m/s 742 mmHg 97%
    04:00 +14°C° 0.1 mm 1 m/s 741 mmHg 97%
    05:00 +14°C° 0.1 mm 1 m/s 741 mmHg 98%
    06:00 +15°C° 0 mm 2 m/s 741 mmHg 93%
    07:00 +16°C° 0 mm 2 m/s 741 mmHg 88%
    08:00 +18°C° 0 mm 2 m/s 741 mmHg 83%
    09:00 +19°C° 0.1 mm 2 m/s 741 mmHg 77%
    10:00 +20°C° 0.1 mm 2 m/s 741 mmHg 71%
    11:00 +21°C° 0.1 mm 2 m/s 741 mmHg 65%
    12:00 +21°C° 0.7 mm 3 m/s 741 mmHg 65%
    13:00 +21°C° 0.7 mm 3 m/s 740 mmHg 65%
    14:00 +21°C° 0.7 mm 4 m/s 740 mmHg 65%
    15:00 +21°C° 0 mm 4 m/s 740 mmHg 62%
    16:00 +21°C° 0 mm 4 m/s 740 mmHg 59%
    17:00 +21°C° 0 mm 4 m/s 740 mmHg 56%
    18:00 +19°C° 0 mm 3 m/s 740 mmHg 65%
    19:00 +18°C° 0 mm 3 m/s 740 mmHg 74%
    20:00 +16°C° 0 mm 3 m/s 740 mmHg 83%
    21:00 +14°C° 0 mm 3 m/s 740 mmHg 85%
    22:00 +13°C° 0 mm 3 m/s 740 mmHg 87%
    23:00 +11°C° 0 mm 3 m/s 741 mmHg 89%

    Amanhã, 26 Maio, Domingo

    Tempo Temperatura Precipitação Vento Pressão Humidade
    00:00 +11°C° 0 mm 3 m/s 741 mmHg 90%
    01:00 +10°C° 0 mm 3 m/s 741 mmHg 90%
    02:00 +9°C° 0 mm 3 m/s 741 mmHg 91%
    03:00 +9°C° 0 mm 3 m/s 742 mmHg 92%
    04:00 +9°C° 0 mm 2 m/s 742 mmHg 93%
    05:00 +8°C° 0 mm 2 m/s 742 mmHg 94%
    06:00 +10°C° 0 mm 2 m/s 742 mmHg 88%
    07:00 +11°C° 0 mm 3 m/s 742 mmHg 82%
    08:00 +13°C° 0 mm 3 m/s 742 mmHg 76%
    09:00 +13°C° 0 mm 3 m/s 742 mmHg 74%
    10:00 +14°C° 0 mm 3 m/s 741 mmHg 71%
    11:00 +14°C° 0 mm 4 m/s 741 mmHg 68%
    12:00 +15°C° 0 mm 4 m/s 741 mmHg 64%
    13:00 +17°C° 0 mm 4 m/s 741 mmHg 61%
    14:00 +17°C° 0 mm 5 m/s 741 mmHg 57%
    15:00 +17°C° 0 mm 5 m/s 740 mmHg 59%
    16:00 +17°C° 0 mm 5 m/s 740 mmHg 62%
    17:00 +17°C° 0 mm 5 m/s 740 mmHg 64%
    18:00 +15°C° 0 mm 5 m/s 740 mmHg 69%
    19:00 +14°C° 0 mm 4 m/s 740 mmHg 73%
    20:00 +12°C° 0 mm 4 m/s 740 mmHg 78%
    21:00 +12°C° 0 mm 4 m/s 741 mmHg 78%
    22:00 +12°C° 0 mm 4 m/s 741 mmHg 79%
    23:00 +11°C° 0 mm 4 m/s 741 mmHg 79%

    Depois de amanhã, 27 Maio, Segunda-feira

    Tempo Temperatura Precipitação Vento Pressão Humidade
    00:00 +10°C° 0 mm 4 m/s 741 mmHg 82%
    01:00 +10°C° 0 mm 4 m/s 741 mmHg 86%
    02:00 +8°C° 0 mm 4 m/s 741 mmHg 90%
    03:00 +10°C° 0 mm 3 m/s 741 mmHg 88%
    04:00 +10°C° 0 mm 3 m/s 741 mmHg 87%
    05:00 +11°C° 0 mm 3 m/s 741 mmHg 86%
    06:00 +11°C° 0 mm 4 m/s 742 mmHg 86%
    07:00 +12°C° 0 mm 4 m/s 742 mmHg 86%
    08:00 +12°C° 0 mm 4 m/s 742 mmHg 86%
    09:00 +14°C° 0.1 mm 4 m/s 742 mmHg 80%
    10:00 +15°C° 0.1 mm 5 m/s 742 mmHg 74%
    11:00 +17°C° 0.1 mm 5 m/s 742 mmHg 68%
    12:00 +17°C° 0.1 mm 5 m/s 742 mmHg 69%
    13:00 +17°C° 0.1 mm 5 m/s 742 mmHg 70%
    14:00 +18°C° 0.1 mm 4 m/s 742 mmHg 71%
    15:00 +19°C° 0.1 mm 4 m/s 742 mmHg 72%
    16:00 +19°C° 0.1 mm 5 m/s 742 mmHg 73%
    17:00 +20°C° 0.1 mm 5 m/s 742 mmHg 74%
    18:00 +19°C° 1.3 mm 4 m/s 742 mmHg 80%
    19:00 +18°C° 1.3 mm 4 m/s 742 mmHg 85%
    20:00 +17°C° 1.3 mm 4 m/s 742 mmHg 91%
    21:00 +16°C° 0.3 mm 3 m/s 742 mmHg 93%
    22:00 +16°C° 0.3 mm 3 m/s 742 mmHg 95%
    23:00 +15°C° 0.3 mm 2 m/s 742 mmHg 96%

    28 Maio, Terça-feira

    Tempo Temperatura Precipitação Vento Pressão Humidade
    00:00 +14°C° 0 mm 2 m/s 743 mmHg 97%
    01:00 +14°C° 0 mm 2 m/s 743 mmHg 97%
    02:00 +13°C° 0 mm 2 m/s 743 mmHg 97%
    03:00 +13°C° 0 mm 1 m/s 743 mmHg 97%
    04:00 +14°C° 0 mm 1 m/s 743 mmHg 97%
    05:00 +14°C° 0 mm 1 m/s 743 mmHg 96%
    06:00 +15°C° 0 mm 1 m/s 744 mmHg 92%
    07:00 +18°C° 0 mm 1 m/s 744 mmHg 87%
    08:00 +20°C° 0 mm 1 m/s 744 mmHg 83%
    09:00 +21°C° 0 mm 1 m/s 744 mmHg 77%
    10:00 +23°C° 0 mm 2 m/s 744 mmHg 71%
    11:00 +24°C° 0 mm 2 m/s 744 mmHg 65%
    12:00 +24°C° 0.6 mm 2 m/s 744 mmHg 66%
    13:00 +25°C° 0.6 mm 2 m/s 744 mmHg 67%
    14:00 +25°C° 0.6 mm 3 m/s 744 mmHg 67%
    15:00 +24°C° 1.1 mm 3 m/s 743 mmHg 74%
    16:00 +23°C° 1.1 mm 2 m/s 743 mmHg 81%
    17:00 +21°C° 1.1 mm 2 m/s 743 mmHg 88%
    18:00 +20°C° 0.7 mm 2 m/s 742 mmHg 89%
    19:00 +20°C° 0.7 mm 2 m/s 742 mmHg 91%
    20:00 +19°C° 0.7 mm 3 m/s 742 mmHg 93%
    21:00 +19°C° 0 mm 2 m/s 742 mmHg 93%
    22:00 +18°C° 0 mm 2 m/s 742 mmHg 94%
    23:00 +18°C° 0 mm 2 m/s 741 mmHg 95%

    29 Maio, Quarta-feira

    Tempo Temperatura Precipitação Vento Pressão Humidade
    00:00 +18°C° 0 mm 2 m/s 742 mmHg 95%
    01:00 +18°C° 0 mm 3 m/s 742 mmHg 96%
    02:00 +18°C° 0 mm 3 m/s 742 mmHg 96%
    03:00 +18°C° 0.2 mm 3 m/s 742 mmHg 96%
    04:00 +17°C° 0.2 mm 3 m/s 741 mmHg 95%
    05:00 +17°C° 0.2 mm 3 m/s 741 mmHg 95%
    06:00 +19°C° 0 mm 4 m/s 741 mmHg 90%
    07:00 +20°C° 0 mm 4 m/s 741 mmHg 85%
    08:00 +21°C° 0 mm 5 m/s 741 mmHg 80%
    09:00 +22°C° 0 mm 5 m/s 741 mmHg 74%
    10:00 +23°C° 0 mm 5 m/s 741 mmHg 68%
    11:00 +25°C° 0 mm 5 m/s 741 mmHg 62%
    12:00 +26°C° 0 mm 5 m/s 741 mmHg 61%
    13:00 +26°C° 0 mm 6 m/s 741 mmHg 60%
    14:00 +27°C° 0 mm 6 m/s 740 mmHg 59%
    15:00 +26°C° 0.5 mm 6 m/s 740 mmHg 64%
    16:00 +26°C° 0.5 mm 6 m/s 740 mmHg 69%
    17:00 +25°C° 0.5 mm 5 m/s 740 mmHg 73%
    18:00 +23°C° 0.4 mm 5 m/s 740 mmHg 78%
    19:00 +21°C° 0.4 mm 4 m/s 740 mmHg 83%
    20:00 +19°C° 0.4 mm 4 m/s 740 mmHg 87%
    21:00 +19°C° 0 mm 4 m/s 740 mmHg 89%
    22:00 +18°C° 0 mm 4 m/s 741 mmHg 91%
    23:00 +18°C° 0 mm 4 m/s 741 mmHg 93%

    30 Maio, Quinta-feira

    Tempo Temperatura Precipitação Vento Pressão Humidade
    00:00 +17°C° 0 mm 4 m/s 742 mmHg 92%
    01:00 +15°C° 0 mm 4 m/s 742 mmHg 91%
    02:00 +14°C° 0 mm 4 m/s 743 mmHg 90%
    03:00 +13°C° 0 mm 5 m/s 744 mmHg 88%
    04:00 +12°C° 0 mm 5 m/s 745 mmHg 87%
    05:00 +10°C° 0 mm 5 m/s 746 mmHg 85%
    06:00 +12°C° 0 mm 4 m/s 746 mmHg 78%
    07:00 +12°C° 0 mm 4 m/s 747 mmHg 71%
    08:00 +13°C° 0 mm 4 m/s 748 mmHg 64%
    09:00 +14°C° 0 mm 4 m/s 748 mmHg 57%
    10:00 +15°C° 0 mm 4 m/s 749 mmHg 51%
    11:00 +16°C° 0 mm 5 m/s 749 mmHg 45%
    12:00 +17°C° 0 mm 5 m/s 749 mmHg 45%
    13:00 +18°C° 0 mm 4 m/s 750 mmHg 44%
    14:00 +19°C° 0 mm 4 m/s 750 mmHg 44%
    15:00 +19°C° 0 mm 4 m/s 750 mmHg 45%
    16:00 +18°C° 0 mm 4 m/s 750 mmHg 47%
    17:00 +18°C° 0 mm 3 m/s 750 mmHg 48%
    18:00 +17°C° 0 mm 3 m/s 750 mmHg 55%
    19:00 +15°C° 0 mm 2 m/s 751 mmHg 61%
    20:00 +13°C° 0 mm 1 m/s 751 mmHg 68%
    21:00 +12°C° 0 mm 1 m/s 751 mmHg 69%
    22:00 +11°C° 0 mm 1 m/s 751 mmHg 70%
    23:00 +10°C° 0 mm 1 m/s 751 mmHg 71%
    Mostrar mais